User: anonymous   Login
Location: Lac de la Montange Noire
(46.1952°N, 74.2701°W)
Time: 22:45:03
(UTC-04:00)
Language:

Iridium 42 - Orbit

View from above orbital plane
View from above orbital plane
View from above satellite
View from above satellite

Ground track
Ground track

The orbit data is extracted from the following two-line orbital elements,

1 25077U 97077A   17113.85114288 +.00000178 +00000-0 +56089-4 0  9999
2 25077 086.3999 044.6236 0002409 089.2475 270.8997 14.34537733014391
Epoch (UTC): 23 April 2017 20:25:38
Eccentricity: 0.0002409
inclination: 86.3999°
perigee height: 775 km
apogee height: 778 km
right ascension of ascending node: 44.6236°
argument of perigee: 89.2475°
revolutions per day: 14.34537733
mean anomaly at epoch: 270.8997°
orbit number at epoch: 1439

The dashed part of the orbit path shows where the satellite is in the earth's shadow,  

DLR